Regional Weather Roundup
Issued by NWS

Home | Current Version | Previous Version | Text Only | Print | Product List | Glossary On
Versions: 1 2 3 4 5 6 7 8 9 10 11 12 13 14 15 16 17 18 19 20 21 22 23 24 25 26 27 28 29 30 31 32 33 34 35 36 37 38 39 40 41 42 43 44 45 46 47 48 49 50
355
ASUS43 KDTX 242210
RWRMI
MICHIGAN HOURLY REGIONAL WEATHER ROUNDUP
NATIONAL WEATHER SERVICE DETROIT/PONTIAC MI
600 PM EDT SAT JUN 24 2017

NOTE: "FAIR" INDICATES FEW OR NO CLOUDS BELOW 12,000 FEET WITH NO
SIGNIFICANT WEATHER AND/OR OBSTRUCTION TO VISIBILITY.

MIZ047>049-052>055-059>063-066>070-074>076-081>083-242300-
SOUTHEAST LOWER MICHIGAN

CITY           SKY/WX    TMP DP  RH WIND       PRES   REMARKS
ADRIAN         MOSUNNY   75  48  38 NW17G26   29.94R
ALMA           MOSUNNY   71  52  51 W17G25    29.92R
ANN ARBOR      MOSUNNY   75  50  41 W20G26    29.91R
BAD AXE        PTSUNNY   66  54  65 W6        29.89S
CARO           LGT RAIN  63  56  77 W15       29.92R
DETROIT CITY   MOSUNNY   77  48  35 W16G25    29.88R
DETROIT        PTSUNNY   78  49  35 W18       29.90R
FLINT          MOSUNNY   73  52  47 W24G30    29.91R
GROSSE ILE     PTSUNNY   76  51  41 W13G24    29.89R
HILLSDALE      MOSUNNY   70  46  43 W15G26    29.96S
HOWELL         MOSUNNY   72  47  41 W20G26    29.93R

CITY           SKY/WX    TMP DP  RH WIND       PRES   REMARKS
JACKSON        MOSUNNY   72  49  44 W16G29    29.94S
LAMBERTVILLE   MOSUNNY   76  50  39 W12G22    29.92R
LANSING        MOSUNNY   73  50  44 W22       29.95R
LAPEER         FAIR      72  54  54 W12G24    29.90S
MASON          MOSUNNY   72  51  47 W17G26    29.94R
MONROE         MOSUNNY   76  50  40 W20G28    29.90R
MT. CLEMENS    PTSUNNY   77  48  35 W16G28    29.86R
PONTIAC        MOSUNNY   75  47  36 W25G31    29.89R
PORT HOPE        N/A     69  52  54 NW6       29.86S
PORT HURON     CLOUDY    70  52  52 NW16      29.90R
TRI CITIES     CLOUDY    63  58  83 N3        29.93R
MIDLAND        CLOUDY    64  56  76 CALM      29.91S
TROY           SUNNY     78  42  27 W18G26    29.91R
SAGINAW HB     LGT RAIN  61  54  77 N5        29.92R
$$
MIZ043>046-050>051-056>058-064>065-071>073-077>080-242300-
SOUTHWEST LOWER MICHIGAN

CITY           SKY/WX    TMP DP  RH WIND       PRES   REMARKS
BATTLE CREEK   MOSUNNY   71  50  47 W20G25    29.98R
BENTON HARBOR  SUNNY     71  49  45 NW7       29.99S
BIG RAPIDS     PTSUNNY   67  44  43 W15G31    29.93R
COLDWATER      PTSUNNY   71  48  43 W15G24    29.97R
FREMONT        FAIR      69  42  38 W16G25    29.95R
HOLLAND        SUNNY     70  49  47 NW13      29.97F
GRAND RAPIDS   MOSUNNY   71  51  49 W20       29.95R
IONIA          FAIR      71  45  40 W20G29    29.94R
KALAMAZOO      MOSUNNY   71  46  40 W15G23    29.97S
LUDINGTON      CLOUDY    67  54  63 W8G17     29.93S
MARSHALL       PTSUNNY   73  51  45 W16G23    29.96R
MOUNT PLEASANT MOSUNNY   70  53  55 W16G22    29.90R
MUSKEGON       MOSUNNY   70  49  47 NW12      29.96S
SOUTH HAVEN    SUNNY     70  52  53 W9        29.98F
$$
MIZ016>042-242300-
NORTHERN LOWER MICHIGAN

CITY           SKY/WX    TMP DP  RH WIND       PRES   REMARKS
ALPENA         CLOUDY    64  57  78 S6        29.87R
BEAVER ISLAND  CLOUDY    63  57  82 W13       29.90R
BELLAIRE       CLOUDY    65  53  65 W9        29.90R
CADILLAC       CLOUDY    67  49  53 W14G25    29.91S
CHARLEVOIX     SUNNY     65  55  71 W14       29.92R
FRANKFORT      PTSUNNY   64  53  68 NW7       29.92R
GAYLORD        PTSUNNY   67  46  47 NW8       29.89R
GRAYLING       RAIN      58  56  92 SW8G20    29.92R
HARBOR SPRINGS SUNNY     65  53  66 W9        29.88S
HOUGHTON LAKE  LGT RAIN  63  55  75 NW10      29.90R
MANISTEE       MOSUNNY   68  55  63 W14       29.92R
OSCODA         RAIN      62  56  80 CALM      29.87S
PELLSTON       PTSUNNY   69  49  48 W9        29.87R
ROGERS CITY    MOSUNNY   68  51  55 N6        29.86S
TRAVERSE CITY  PTSUNNY   69  54  58 W15G22    29.88R
$$
MIZ007>008-015-242300-
EASTERN UPPER MICHIGAN

CITY           SKY/WX    TMP DP  RH WIND       PRES   REMARKS
KINROSS        SUNNY     69  48  47 N10       29.86R
MACKINAC ISLAN MOSUNNY   64  55  71 W7        29.87R
NEWBERRY       PTSUNNY   65  53  65 SW10      29.86R
S. S. MARIE    SUNNY     68  49  50 NW9       29.85R
MUNISING         N/A     55  51  86 NE3       29.90S
$$
MIZ004>006-011>014-085-242300-
CENTRAL UPPER MICHIGAN

CITY           SKY/WX    TMP DP  RH WIND       PRES   REMARKS
MANISTIQUE     DRIZZLE   59  56  89 NW5       29.89R
ESCANABA       RAIN      57  55  94 W7        29.90R
MENOMINEE      PTSUNNY   62  54  74 N10G16    29.91S
SAWYER-GWINN   LGT RAIN  55  54  94 CALM      29.91S
$$
MIZ001>003-009>011-084-242300-
WESTERN UPPER MICHIGAN

CITY           SKY/WX    TMP DP  RH WIND       PRES   REMARKS
IRON MOUNTAIN  RAIN      57  53  86 NW7       29.91R FOG
HOUGHTON       FOG       53  51  93 W16       29.90S VSB 1
COPPER HARBOR    N/A     56  53  90 N13       29.89R
IRONWOOD       CLOUDY    57  51  80 W13       29.94R
$$

ABBREVIATIONS USED IN REMARKS
   TC - TEMPERATURE IN CELSIUS
  WCI - WIND CHILL INDEX
   HX - HEAT INDEX
  VSB - VISIBILITY





USA.gov is the U.S. government's official web portal to all federal, state and local government web resources and services.